SCP
0 0 0 0 0 0 0 0 0 0 0 0 0 0 0 0 0 0 0 0 0 0 0 0 0 0 0 0 0 0 0 0 0 0 0 0 0 0
0 0 0 0 0 0 0 0 0 0 0 0 0 0 0 0 0 0 0 0 0 0 0 0 0 0 0 0 0 0 0 0 0 0 0 0 0 0
0 0 0 0 0 0 0 0 0 0 0 0 0 0 0 0 0 0 0 0 0 0 0 0 0 0 0 0 0 0 0 0 0 0 0 0 0 0
0 0 0 0 0 0 0 0 0 0 0 0 0 0 0 0 0 0 0 0 0 0 0 0 0 0 0 0 0 0 0 0 0 0 0 0 0 0
0 0 0 0 0 0 0 0 0 0 0 0 0 0 0 0 0 0 0 0 0 0 0 0 0 0 0 0 0 -0 -0 0 0 0 0 0 0 0
0 0 0 0 0 0 0 0 0 0 0 0 0 0 0 0 0 0 0 0 0 0 0 0 0 0 0 0 0 -0 -0 -0 0 0 0 0 0 0
0 0 0 0 0 0 0 0 0 0 0 0 0 0 0 0 0 0 0 0 0 0 0 0 0 0 0 0 0 0 0 0 0 -0 -0 0 0 0
0 0 0 0 0 0 0 0 0 0 0 0 0 0 0 0 0 0 0 0 0 0 0 0 0 0 0 0 0 0 -0 -0 -0 -0 0 0 0 0
0 0 0 0 0 0 0 0 0 0 0 0 0 0 0 0 0 0 0 0 0 0 0 0 0 0 0 0 0 0 -0 -0 -0 -0 -0 0 0 0
0 0 0 0 0 0 0 0 0 0 0 0 0 0 0 0 0 0 0 0 0 0 0 0 0 0 0 0 0 0 0 -0 -0 0 0 0 0 0
0 0 0 0 0 0 0 0 0 0 0 0 0 0 0 0 0 0 0 0 0 0 0 0 0 0 0 0 0 0 0 0 0 0 0 -0 0 0
0 0 0 0 0 0 0 0 0 0 0 0 0 0 0 0 0 0 0 0 0 0 0 0 0 0 0 0 0 0 0 0 0 0 0 0 -0 0
0 0 0 0 0 0 0 0 0 0 0 0 0 0 0 0 0 0 0 0 0 0 0 0 0 0 0 0 0 0 0 0 0 0 0 0 0 0
0 0 0 0 0 0 0 0 0 0 0 0 0 0 0 0 0 0 0 0 0 0 0 0 0 0 0 0 0 0 0 0 0 0 0 0 -0 0
0 0 0 0 0 0 0 0 0 0 0 0 0 0 0 0 0 0 0 0 0 0 0 0 0 0 0 0 0 0 0 0 -0 0 -0 -0 0 0
0 0 0 0 0 0 0 0 0 0 0 0 0 0 0 0 0 0 0 0 0 0 0 0 0 0 0 0 0 0 -0 -0 -0 0 -0 -0 -0 0
0 0 0 0 0 0 0 0 0 0 0 0 0 0 0 0 0 0 0 0 0 0 0 0 0 0 0 0 0 0 -0 0 -0 -0 -0 -0 -0 -0
0 0 0 0 0 0 0 0 0 0 0 0 0 0 0 0 0 0 0 0 0 0 0 0 0 0 0 0 0 0 -0 0 -0 -0 -0 -0 -0 -0
0 0 0 0 0 0 0 0 0 0 0 0 0 0 0 0 0 0 0 0 0 0 0 0 0 0 0 0 0 0 0 0 0 0 0 -0 -0 -0
0 0 0 0 0 0 0 0 0 0 0 0 0 0 0 0 0 0 0 0 0 0 0 0 0 0 0 0 0 0 -0 0 0 0 0 0 0 0
0 0 0 0 0 0 0 0 0 0 0 0 0 0 0 0 0 0 0 0 0 0 0 0 0 0 0 0 0 0 0 -0 0 0 0 0 0 0
0 0 0 0 0 0 -0 0 0 0 0 0 0 0 0 0 0 0 0 0 0 0 0 0 0 0 0 0 0 0 0 -0 -0 -0 0 0 0 0
0 0 0 0 0 0 0 0 0 0 0 0 0 0 0 0 0 0 0 0 0 0 0 0 0 0 0 0 0 0 0 0 0 -0 0 0 0 0
Wind_Speed_500mb
21 20 20 21 21 23 25 26 29 35 35 31 35 33 36 39 42 46 50 50 64 68 66 64 63 64 64 59 57 56 57 56 57 57 58 58 57 60
20 22 22 21 23 25 27 29 30 34 43 35 36 37 37 41 41 48 48 58 57 63 66 66 63 64 66 64 62 59 59 56 55 56 59 58 56 61
25 25 26 26 27 28 30 30 32 34 42 43 38 38 41 43 41 44 47 49 48 53 62 66 62 65 64 59 53 49 50 51 52 52 54 57 59 60
28 32 32 31 34 34 34 36 36 37 41 47 42 42 43 44 45 45 44 45 47 50 62 62 60 58 51 47 47 49 51 54 54 53 55 56 58 60
32 36 37 37 40 40 39 40 39 40 41 43 46 42 43 42 44 44 44 43 43 48 54 57 53 55 48 50 47 45 45 48 52 55 53 53 54 55
40 46 49 46 46 46 45 44 42 44 43 43 45 45 42 40 41 43 45 42 45 45 46 45 52 51 54 50 44 42 45 48 52 52 51 49 48 50
43 48 52 55 58 57 52 49 45 45 43 43 46 45 43 41 40 42 44 42 44 40 43 41 47 46 42 43 44 44 47 63 62 51 38 44 47 49
45 46 48 55 61 62 64 64 59 50 48 47 48 46 44 41 39 41 39 41 47 35 43 48 43 45 41 39 42 54 54 51 50 44 39 45 44 43
45 48 51 50 57 57 58 63 66 62 61 53 51 48 45 40 39 39 37 39 44 43 44 50 44 47 39 40 46 51 43 42 45 40 42 44 45 46
49 50 51 53 53 56 50 57 54 55 59 59 57 47 41 38 37 36 36 39 41 39 38 50 44 42 41 43 42 42 46 47 44 46 54 58 56 55
47 50 51 52 53 59 64 56 56 53 52 63 57 53 54 53 50 41 37 35 42 40 35 38 36 45 43 43 27 32 49 54 48 49 51 52 56 60
52 50 54 61 55 62 66 68 63 60 53 51 52 55 55 52 48 47 35 37 39 44 30 38 44 42 49 32 25 40 47 47 56 49 53 53 52 54
58 61 57 58 64 57 65 72 79 69 53 61 47 44 41 38 36 37 34 35 39 43 35 36 40 41 41 54 46 41 45 52 51 44 43 52 57 57
66 64 65 67 71 67 64 69 75 79 68 61 50 51 46 43 39 37 37 38 38 43 40 37 42 39 43 49 52 44 42 51 46 46 42 59 67 65
63 70 77 77 70 75 77 70 69 72 75 70 71 62 51 49 36 34 35 37 37 39 38 34 35 37 39 44 50 43 47 48 41 48 44 63 65 56
67 77 74 79 85 75 68 69 71 73 74 73 62 56 55 57 40 34 32 32 33 34 30 32 33 33 38 40 41 43 38 41 50 45 44 59 63 44
72 76 65 59 61 65 61 61 68 73 66 59 50 56 59 52 48 32 31 32 32 32 29 27 28 33 35 39 40 32 33 38 39 41 42 53 60 40
61 50 52 56 58 56 57 57 59 64 59 50 44 48 57 56 46 35 31 32 31 29 28 26 26 28 26 26 27 23 25 32 35 34 34 43 48 45
40 43 44 47 48 45 51 52 51 58 57 43 43 47 50 53 48 39 35 31 29 27 26 24 22 21 24 22 19 22 22 27 31 30 28 30 33 48
37 41 44 47 46 46 49 47 47 51 43 38 39 43 42 44 50 46 37 33 29 25 24 21 20 19 19 21 21 18 18 23 25 27 26 20 21 27
40 41 42 45 47 49 50 47 52 42 39 36 38 36 38 43 47 44 33 34 31 24 23 20 17 25 16 15 14 19 14 14 20 27 30 13 14 22
39 41 43 45 45 48 49 40 19 43 37 36 37 37 36 42 48 43 36 34 27 25 22 20 17 12 12 14 16 13 8 8 16 22 21 24 21 13
39 41 43 45 45 45 46 43 27 6 24 23 27 31 34 40 47 43 38 35 28 24 21 17 15 12 13 13 11 8 7 3 3 6 11 17 19 18
Wind_Direction_500mb
245 247 250 254 258 264 265 262 266 278 279 281 283 283 280 281 281 281 292 296 293 302 302 302 302 302 298 292 289 287 284 282 280 279 277 275 273 273
256 249 251 258 263 263 263 262 262 269 279 282 283 284 279 279 283 288 294 295 306 304 305 306 307 302 296 291 289 287 287 286 286 283 278 274 272 274
263 254 257 257 258 263 264 263 262 267 275 282 283 286 286 284 289 290 291 295 298 298 294 302 302 297 297 296 294 291 289 289 287 286 283 278 268 273
260 256 257 259 261 263 265 265 265 268 275 281 285 286 284 283 286 288 293 295 297 297 294 305 302 302 297 294 294 295 297 295 290 288 284 280 269 264
257 260 260 259 261 263 264 266 268 271 273 276 283 286 287 286 287 289 292 297 301 299 305 306 305 308 302 295 294 297 300 300 295 293 290 286 276 260
258 259 258 257 259 261 263 265 269 271 271 274 281 286 287 286 284 291 296 296 300 302 305 307 310 312 312 310 299 295 302 303 301 295 292 290 281 271
268 265 263 261 261 259 260 260 265 269 270 274 279 282 283 284 283 288 291 298 301 306 305 306 304 301 297 293 294 302 294 295 293 292 291 294 289 280
275 274 269 271 269 265 264 258 254 261 265 270 276 276 279 280 282 286 287 297 301 305 304 305 308 303 298 292 285 286 298 306 299 284 281 285 285 280
278 277 276 272 270 265 265 260 256 261 264 264 265 269 275 275 278 281 284 288 293 300 305 304 308 303 298 292 291 292 297 305 305 279 279 285 287 288
280 280 278 274 268 263 258 256 254 256 262 264 265 264 265 267 270 273 278 288 293 298 302 300 308 305 301 295 293 299 308 312 303 291 281 282 285 290
285 283 279 275 271 262 262 252 250 253 254 259 266 263 272 273 273 266 270 282 290 296 303 296 306 308 306 301 289 287 310 321 312 306 299 292 289 291
289 286 284 284 280 269 265 260 251 255 252 250 259 259 266 267 266 261 261 271 285 292 297 296 302 310 310 298 289 305 311 315 315 313 310 308 301 294
289 286 284 281 285 281 269 264 259 263 254 251 247 252 253 252 251 260 259 263 276 282 291 290 296 299 295 297 299 303 308 312 316 313 305 297 304 306
289 288 284 282 280 281 280 271 263 261 254 252 248 244 242 243 245 249 254 259 266 278 286 285 286 290 294 296 300 307 310 314 320 314 306 312 315 319
289 289 289 288 282 276 270 270 265 256 252 253 259 250 243 239 239 246 248 255 268 279 281 281 281 285 287 291 297 302 308 315 322 317 321 322 332 330
307 303 293 284 280 281 282 272 259 253 249 251 256 258 245 241 235 240 249 257 269 282 281 279 281 282 287 287 290 295 305 309 318 321 322 332 350 346
314 312 303 295 292 284 277 282 257 255 250 246 255 253 245 238 238 235 241 250 261 278 282 282 284 286 287 288 286 289 297 310 317 327 331 337 2 6
321 318 308 304 299 293 277 272 270 255 251 248 250 248 247 239 237 229 231 243 257 271 277 282 288 297 304 301 287 292 301 313 322 335 344 345 9 25
324 327 321 311 309 306 290 276 264 260 260 244 248 247 244 242 234 229 227 237 250 264 271 276 282 292 302 305 306 308 312 327 337 349 346 349 16 32
329 327 328 327 323 317 298 289 276 271 243 241 243 244 240 236 235 229 225 233 243 258 265 268 272 278 285 294 292 282 319 345 356 354 351 9 30 38
329 327 324 326 328 326 321 295 277 274 246 238 244 245 240 236 230 227 220 227 233 244 256 260 264 265 278 309 307 328 313 339 12 11 13 19 35 39
326 324 324 323 325 328 328 326 293 257 247 239 246 244 242 231 227 224 216 219 231 239 248 254 266 271 263 273 293 299 301 292 358 10 24 43 52 46
324 323 321 322 323 324 328 325 321 288 266 252 247 251 238 233 226 223 215 214 220 233 238 244 253 257 248 261 283 298 304 315 297 350 12 48 61 59
Wind_Speed_850mb
21 20 20 21 21 23 25 26 29 35 35 31 35 33 36 39 42 46 50 50 64 68 66 64 63 64 64 59 57 56 57 56 57 57 58 58 57 60
20 22 22 21 23 25 27 29 30 34 43 35 36 37 37 41 41 48 48 58 57 63 66 66 63 64 66 64 62 59 59 56 55 56 59 58 56 61
25 25 26 26 27 28 30 30 32 34 42 43 38 38 41 43 41 44 47 49 48 53 62 66 62 65 64 59 53 49 50 51 52 52 54 57 59 60
28 32 32 31 34 34 34 36 36 37 41 47 42 42 43 44 45 45 44 45 47 50 62 62 60 58 51 47 47 49 51 54 54 53 55 56 58 60
32 36 37 37 40 40 39 40 39 40 41 43 46 42 43 42 44 44 44 43 43 48 54 57 53 55 48 50 47 45 45 48 52 55 53 53 54 55
40 46 49 46 46 46 45 44 42 44 43 43 45 45 42 40 41 43 45 42 45 45 46 45 52 51 54 50 44 42 45 48 52 52 51 49 48 50
43 48 52 55 58 57 52 49 45 45 43 43 46 45 43 41 40 42 44 42 44 40 43 41 47 46 42 43 44 44 47 63 62 51 38 44 47 49
45 46 48 55 61 62 64 64 59 50 48 47 48 46 44 41 39 41 39 41 47 35 43 48 43 45 41 39 42 54 54 51 50 44 39 45 44 43
45 48 51 50 57 57 58 63 66 62 61 53 51 48 45 40 39 39 37 39 44 43 44 50 44 47 39 40 46 51 43 42 45 40 42 44 45 46
49 50 51 53 53 56 50 57 54 55 59 59 57 47 41 38 37 36 36 39 41 39 38 50 44 42 41 43 42 42 46 47 44 46 54 58 56 55
47 50 51 52 53 59 64 56 56 53 52 63 57 53 54 53 50 41 37 35 42 40 35 38 36 45 43 43 27 32 49 54 48 49 51 52 56 60
52 50 54 61 55 62 66 68 63 60 53 51 52 55 55 52 48 47 35 37 39 44 30 38 44 42 49 32 25 40 47 47 56 49 53 53 52 54
58 61 57 58 64 57 65 72 79 69 53 61 47 44 41 38 36 37 34 35 39 43 35 36 40 41 41 54 46 41 45 52 51 44 43 52 57 57
66 64 65 67 71 67 64 69 75 79 68 61 50 51 46 43 39 37 37 38 38 43 40 37 42 39 43 49 52 44 42 51 46 46 42 59 67 65
63 70 77 77 70 75 77 70 69 72 75 70 71 62 51 49 36 34 35 37 37 39 38 34 35 37 39 44 50 43 47 48 41 48 44 63 65 56
67 77 74 79 85 75 68 69 71 73 74 73 62 56 55 57 40 34 32 32 33 34 30 32 33 33 38 40 41 43 38 41 50 45 44 59 63 44
72 76 65 59 61 65 61 61 68 73 66 59 50 56 59 52 48 32 31 32 32 32 29 27 28 33 35 39 40 32 33 38 39 41 42 53 60 40
61 50 52 56 58 56 57 57 59 64 59 50 44 48 57 56 46 35 31 32 31 29 28 26 26 28 26 26 27 23 25 32 35 34 34 43 48 45
40 43 44 47 48 45 51 52 51 58 57 43 43 47 50 53 48 39 35 31 29 27 26 24 22 21 24 22 19 22 22 27 31 30 28 30 33 48
37 41 44 47 46 46 49 47 47 51 43 38 39 43 42 44 50 46 37 33 29 25 24 21 20 19 19 21 21 18 18 23 25 27 26 20 21 27
40 41 42 45 47 49 50 47 52 42 39 36 38 36 38 43 47 44 33 34 31 24 23 20 17 25 16 15 14 19 14 14 20 27 30 13 14 22
39 41 43 45 45 48 49 40 19 43 37 36 37 37 36 42 48 43 36 34 27 25 22 20 17 12 12 14 16 13 8 8 16 22 21 24 21 13
39 41 43 45 45 45 46 43 27 6 24 23 27 31 34 40 47 43 38 35 28 24 21 17 15 12 13 13 11 8 7 3 3 6 11 17 19 18
Wind_Direction_850mb
245 247 250 254 258 264 265 262 266 278 279 281 283 283 280 281 281 281 292 296 293 302 302 302 302 302 298 292 289 287 284 282 280 279 277 275 273 273
256 249 251 258 263 263 263 262 262 269 279 282 283 284 279 279 283 288 294 295 306 304 305 306 307 302 296 291 289 287 287 286 286 283 278 274 272 274
263 254 257 257 258 263 264 263 262 267 275 282 283 286 286 284 289 290 291 295 298 298 294 302 302 297 297 296 294 291 289 289 287 286 283 278 268 273
260 256 257 259 261 263 265 265 265 268 275 281 285 286 284 283 286 288 293 295 297 297 294 305 302 302 297 294 294 295 297 295 290 288 284 280 269 264
257 260 260 259 261 263 264 266 268 271 273 276 283 286 287 286 287 289 292 297 301 299 305 306 305 308 302 295 294 297 300 300 295 293 290 286 276 260
258 259 258 257 259 261 263 265 269 271 271 274 281 286 287 286 284 291 296 296 300 302 305 307 310 312 312 310 299 295 302 303 301 295 292 290 281 271
268 265 263 261 261 259 260 260 265 269 270 274 279 282 283 284 283 288 291 298 301 306 305 306 304 301 297 293 294 302 294 295 293 292 291 294 289 280
275 274 269 271 269 265 264 258 254 261 265 270 276 276 279 280 282 286 287 297 301 305 304 305 308 303 298 292 285 286 298 306 299 284 281 285 285 280
278 277 276 272 270 265 265 260 256 261 264 264 265 269 275 275 278 281 284 288 293 300 305 304 308 303 298 292 291 292 297 305 305 279 279 285 287 288
280 280 278 274 268 263 258 256 254 256 262 264 265 264 265 267 270 273 278 288 293 298 302 300 308 305 301 295 293 299 308 312 303 291 281 282 285 290
285 283 279 275 271 262 262 252 250 253 254 259 266 263 272 273 273 266 270 282 290 296 303 296 306 308 306 301 289 287 310 321 312 306 299 292 289 291
289 286 284 284 280 269 265 260 251 255 252 250 259 259 266 267 266 261 261 271 285 292 297 296 302 310 310 298 289 305 311 315 315 313 310 308 301 294
289 286 284 281 285 281 269 264 259 263 254 251 247 252 253 252 251 260 259 263 276 282 291 290 296 299 295 297 299 303 308 312 316 313 305 297 304 306
289 288 284 282 280 281 280 271 263 261 254 252 248 244 242 243 245 249 254 259 266 278 286 285 286 290 294 296 300 307 310 314 320 314 306 312 315 319
289 289 289 288 282 276 270 270 265 256 252 253 259 250 243 239 239 246 248 255 268 279 281 281 281 285 287 291 297 302 308 315 322 317 321 322 332 330
307 303 293 284 280 281 282 272 259 253 249 251 256 258 245 241 235 240 249 257 269 282 281 279 281 282 287 287 290 295 305 309 318 321 322 332 350 346
314 312 303 295 292 284 277 282 257 255 250 246 255 253 245 238 238 235 241 250 261 278 282 282 284 286 287 288 286 289 297 310 317 327 331 337 2 6
321 318 308 304 299 293 277 272 270 255 251 248 250 248 247 239 237 229 231 243 257 271 277 282 288 297 304 301 287 292 301 313 322 335 344 345 9 25
324 327 321 311 309 306 290 276 264 260 260 244 248 247 244 242 234 229 227 237 250 264 271 276 282 292 302 305 306 308 312 327 337 349 346 349 16 32
329 327 328 327 323 317 298 289 276 271 243 241 243 244 240 236 235 229 225 233 243 258 265 268 272 278 285 294 292 282 319 345 356 354 351 9 30 38
329 327 324 326 328 326 321 295 277 274 246 238 244 245 240 236 230 227 220 227 233 244 256 260 264 265 278 309 307 328 313 339 12 11 13 19 35 39
326 324 324 323 325 328 328 326 293 257 247 239 246 244 242 231 227 224 216 219 231 239 248 254 266 271 263 273 293 299 301 292 358 10 24 43 52 46
324 323 321 322 323 324 328 325 321 288 266 252 247 251 238 233 226 223 215 214 220 233 238 244 253 257 248 261 283 298 304 315 297 350 12 48 61 59